Voltar ao catálogo

COSMOS 1275 DEB

AtivoPO
NORAD 12725·DEBRIS·🇷🇺 Russia

Lançado Jun 4, 1981 de Plesetsk Cosmodrome

Loading…

Próximas Passagens (próximas 24 horas)

TLE

AtualizadoSource: Space-Track

Época: Sep 14, 2026, 09:30 UTC

1 12725U 81053BS  26257.39606635  .00000970  00000-0  80505-3 0  9991
2 12725  83.1337 268.8027 0092754 112.3479 315.3652 13.85769015253922

Acompanhe COSMOS 1275 DEB em tempo real com AllMySat

Download on the App Store